Regional Weather Roundup
Issued by NWS Cleveland, OH

Home | Current Version | Previous Version | Graphics & Text | Print | Product List | Glossary On
Versions: 1 2 3 4 5 6 7 8 9 10 11 12 13 14 15 16 17 18 19 20 21 22 23 24 25 26 27 28 29 30 31 32 33 34 35 36 37 38 39 40 41 42 43 44 45 46 47 48 49 50
000
ASUS41 KCLE 231200
RWRCLE
OHIO REGIONAL WEATHER ROUNDUP
NATIONAL WEATHER SERVICE WILMINGTON, OH
700 AM EST MON JAN 23 2017

NOTE: "FAIR" INDICATES FEW OR NO CLOUDS BELOW 12,000 FEET WITH NO
SIGNIFICANT WEATHER AND/OR OBSTRUCTIONS TO VISIBILITY.

OHZ001>008-015>018-024>027-034-035-043-044-231300-
   NORTHWEST OHIO

CITY           SKY/WX    TMP DP  RH WIND       PRES   REMARKS
DEFIANCE       CLOUDY    42  41  96 NE13      29.60R FOG
FINDLAY        RAIN      39  36  89 NE13      29.56R FOG
TOLEDO EXPRESS CLOUDY    41  41 100 NE14      29.60R FOG
TOLEDO EXEC    CLOUDY    39  39 100 NE16G23   29.62R
LIMA           LGT RAIN  39  39 100 N13       29.54R FOG
$$

OHZ009>014-019>023-028>033-038-089-231300-
   NORTHEAST OHIO

CITY           SKY/WX    TMP DP  RH WIND       PRES   REMARKS
CLE-HOPKINS    LGT RAIN  40  37  89 NE12      29.59R FOG
CLE-LAKEFRONT  LGT RAIN  37  36  96 NE16      29.57R FOG
CUY CO. ARPT   LGT RAIN  41  39  93 NE12      29.58  FOG
LORAIN-ELYRIA  RAIN      38  36  92 NE13      29.57R FOG
ASHTABULA      CLOUDY    38  38 100 VRB3      29.61R FOG
AKRON-CANTON   LGT RAIN  49  45  86 E15       29.52R FOG
WOOSTER        NOT AVBL
MANSFIELD      RAIN      47  46  97 NE9       29.51R FOG
YOUNGSTOWN     LGT RAIN  49  43  80 E16       29.55S
$$

OHZ042-051>053-060>062-070>072-077>081-231300-
  SOUTHWEST OHIO

CITY           SKY/WX    TMP DP  RH WIND       PRES   REMARKS
CINC-COVINGTON LGT RAIN  48  46  93 N16G23    29.45R FOG
CINC-LUNKEN    LGT RAIN  49  47  93 N12       29.46R
HAMILTON       LGT RAIN  47  44  90 N10       29.48R
DAYTON         NOT AVBL
WRIGHT-PAT AFB NOT AVBL
DAYTON GENERAL CLOUDY    44  42  93 N13       29.46R
WILMINGTON     LGT RAIN  47  47 100 N15       29.44R FOG
$$

OHZ036-037-039>041-045>050-054>059-063>069-073>076-082>088-231300-
  CENTRAL AND SOUTHEAST OHIO

CITY           SKY/WX    TMP DP  RH WIND       PRES   REMARKS
COLUMBUS       LGT RAIN  53  47  79 NE9       29.44R
OSU AIRPORT    CLOUDY    45  44  97 N13       29.46R
BOLTON FIELD   NOT AVBL
RICKENBACK AFB NOT AVBL
NEWARK         CLOUDY    52  46  80 NE10G20   29.45R
MARION         LGT RAIN  42  40  92 N15       29.51R FOG
LANCASTER      CLOUDY    53  47  79 NE12      29.43R
ZANESVILLE     CLOUDY    51  46  83 NE8       29.45R
NEW PHILLY     CLOUDY    50  46  86 NE9       29.49R
$$



USA.gov is the U.S. government's official web portal to all federal, state and local government web resources and services.